Portada
METAR-TAF:

METAR-TAF

Aeropuertos :

Aeropuerto Internacional Jacinto Lara

Barquisimeto, Venezuela

latitud: 10-04N, longitud: 069-19W, altitud: 613 m

Observación

El informe se hizo hace 10 horas y 37 minutos, a las 21:00 UTC
Viento 10 kt del este
Temperatura 29°C
Humedad 52%
Presión 1014 hPa
Visibilidad 10 km o más
Cielo nuboso a una altura de 1600 ft

METAR: SVBM 202100Z 09010KT 9999 BKN016 29/18 Q1014

Hora: 03:37 (07:37 UTC)


TAF: falta

Observaciones y pronósticos meteorológicos de más de 4000 aeropuertos (mensajes METAR y TAF).

Los puntos amarillos y rojos representan las estaciones disponibles.

Ponga el ratón en el punto deseado para ver el nombre de la estación.

Haga clic para ver las observaciones y los pronósticos meteorológicos.

Para cambiar el mapa : haga clic en los botones verdes con una cruz de color negro para hacer un zoom, en el botón verde con un guión para alejar o en las flechas verdes para mapas adyacentes.


METAR-TAF: